GW0571 Weather Reports


time (UTC)temp
C
wind
direction
speed
KPH
gust
KPH
rain 1hr
cm
rain 24hr
cm
rain mn
cm
humidity
%
barometer
mb
20260901160833 20 230 1.6 3.2 0.00 2.59 2.59 96 1015.1
20260901160330 20 230 0.0 0.0 0.00 2.59 2.59 96 1015.2
20260901155829 20 230 0.0 0.0 0.00 2.59 2.59 96 1015.2
20260901155323 20 142 0.0 1.6 0.00 2.59 2.59 96 1015.2
20260901154821 20 119 0.0 3.2 0.00 2.59 2.59 96 1015.2
20260901154319 20 124 0.0 1.6 0.00 2.59 2.59 96 1015.4
20260901153814 21 139 0.0 1.6 0.00 2.59 2.59 96 1015.4
20260901153314 20 142 0.0 1.6 0.00 2.59 2.59 96 1015.4
20260901152813 20 170 0.0 1.6 0.00 2.59 2.59 96 1015.3
20260901152312 20 142 0.0 0.0 0.00 2.59 2.59 96 1015.1
20260901151808 20 142 0.0 1.6 0.00 2.59 2.59 96 1015.3
20260901151302 20 217 0.0 1.6 0.00 2.59 2.59 96 1015.4
20260901150802 20 44 0.0 1.6 0.00 2.59 2.59 96 1015.3
20260901150300 20 157 0.0 1.6 0.00 2.59 2.59 96 1015.3
20260901145757 20 180 0.0 3.2 0.00 2.59 2.59 96 1015.1
20260901145251 20 254 1.6 3.2 0.00 2.59 2.59 96 1015.2
20260901144747 20 182 0.0 4.8 0.00 2.59 2.59 96 1015.0
20260901144243 20 247 3.2 4.8 0.05 2.59 2.59 96 1015.1
20260901143738 20 130 0.0 4.8 0.05 2.59 2.59 96 1015.1
20260901143234 20 175 1.6 3.2 0.05 2.59 2.59 96 1015.2
20260901142731 20 170 0.0 3.2 0.05 2.57 2.57 96 1015.1
20260901142229 20 229 0.0 3.2 0.05 2.57 2.57 96 1015.1
20260901141725 20 228 3.2 4.8 0.00 2.57 2.57 96 1014.9
20260901141225 20 139 0.0 4.8 0.05 2.57 2.57 96 1015.4
20260901140724 20 173 0.0 9.7 0.05 2.57 2.57 96 1015.3
20260901140222 20 131 3.2 4.8 0.71 2.54 2.54 96 1015.3
20260901135718 20 144 0.0 4.8 0.89 2.54 2.54 96 1015.4
20260901135212 20 232 1.6 6.4 0.66 2.39 2.39 96 1015.3
20260901134708 20 127 0.0 4.8 0.53 2.39 2.39 96 1015.2
20260901134203 20 253 1.6 4.8 0.00 2.29 2.29 96 1015.3
20260901133702 20 139 1.6 6.4 0.18 2.29 2.29 96 1015.2
20260901133201 20 158 1.6 8.0 0.84 2.29 2.29 96 1015.1
20260901132701 20 213 4.8 4.8 1.32 2.26 2.26 96 1015.4
20260901132155 20 153 0.0 12.9 2.11 2.16 2.16 96 1015.9
20260901131655 20 161 1.6 3.2 2.03 1.98 1.98 96 1015.7
20260901131155 20 322 0.0 1.6 1.50 1.80 1.80 96 1015.7
20260901130650 20 259 1.6 6.4 0.53 1.60 1.60 96 1015.7
20260901130148 20 264 0.0 3.2 0.05 1.52 1.52 96 1015.7
20260901125647 20 207 0.0 3.2 0.00 1.52 1.52 96 1015.4
20260901125142 20 230 3.2 4.8 0.23 1.52 1.52 96 1015.4
20260901124637 20 218 0.0 4.8 0.79 1.50 1.50 96 1015.6
20260901124137 20 203 0.0 4.8 0.61 1.40 1.40 96 1015.7
20260901123632 20 163 1.6 4.8 0.84 1.40 1.40 96 1015.8
20260901123131 20 76 0.0 6.4 1.75 1.35 1.35 96 1015.7
20260901122630 20 139 1.6 4.8 2.11 1.22 1.22 96 1016.1
20260901122125 19 138 0.0 4.8 1.85 1.02 1.02 96 1016.1
20260901121620 19 112 0.0 3.2 1.45 0.86 0.86 96 1016.2
20260901121115 19 273 3.2 3.2 1.02 0.71 0.71 96 1016.1
20260901120615 18 223 1.6 3.2 1.50 0.61 0.61 96 1016.1
20260901120110 18 142 0.0 1.6 1.37 0.48 0.48 96 1015.8
20260901115605 18 334 1.6 3.2 0.71 0.38 0.38 96 1015.8
20260901115102 18 263 0.0 3.2 0.00 0.25 0.25 96 1015.9
20260901114558 18 134 0.0 3.2 0.36 0.25 0.25 96 1015.5
20260901114057 18 108 3.2 3.2 0.48 0.25 0.25 96 1015.5
20260901113555 18 158 4.8 6.4 0.18 0.18 0.18 96 1015.8
20260901113046 18 345 0.0 3.2 0.48 0.18 0.18 96 1016.0
20260901112545 18 113 0.0 3.2 0.43 0.15 0.15 96 1015.7
20260901112040 18 317 0.0 3.2 0.13 0.10 0.10 96 1015.8
20260901111539 18 224 0.0 3.2 0.13 0.08 0.08 96 1015.5
20260901111037 18 142 0.0 1.6 0.05 0.08 0.08 96 1015.2
20260901110533 18 209 0.0 1.6 0.00 0.05 0.05 96 1015.2
20260901110029 18 129 0.0 3.2 0.00 0.05 0.05 96 1015.2
20260901105526 18 110 0.0 3.2 0.00 0.05 0.05 96 1015.2
20260901105024 18 44 0.0 3.2 0.00 0.05 0.05 96 1015.1
20260901104521 18 157 1.6 3.2 0.00 0.05 0.05 96 1015.2
20260901104016 18 347 0.0 3.2 0.00 0.05 0.05 96 1015.3
20260901103516 18 50 0.0 0.0 0.00 0.05 0.05 96 1015.4
20260901103012 18 105 0.0 1.6 0.00 0.05 0.05 96 1015.3
20260901102506 18 203 0.0 3.2 0.00 0.05 0.05 96 1015.3
20260901102000 18 6 0.0 0.0 0.00 0.05 0.05 96 1015.2
20260901101455 18 113 0.0 3.2 0.05 0.05 0.05 96 1015.1
20260901100950 18 145 0.0 3.2 0.05 0.05 0.05 96 1015.0
20260901100444 18 60 0.0 1.6 0.00 0.05 0.05 96 1015.2
20260901095944 18 113 0.0 1.6 0.00 0.05 0.05 96 1015.3
20260901095443 17 19 0.0 1.6 0.00 0.05 0.05 96 1015.4
20260901094935 18 37 0.0 1.6 0.00 0.05 0.05 96 1015.3
20260901094436 18 230 0.0 3.2 0.00 0.05 0.05 96 1015.1
20260901093935 18 131 0.0 1.6 0.00 0.05 0.05 96 1015.3
20260901093430 18 38 0.0 3.2 0.00 0.05 0.05 96 1015.3
20260901092925 18 157 0.0 1.6 0.00 0.05 0.05 96 1015.7
20260901092421 18 145 0.0 1.6 0.00 0.05 0.05 96 1015.3
20260901091917 18 129 0.0 1.6 0.00 0.05 0.05 96 1015.2
20260901091416 18 89 0.0 1.6 0.00 0.05 0.05 96 1015.5
20260901090912 18 142 0.0 1.6 0.00 0.05 0.05 96 1015.4
20260901090411 18 0 0.0 1.6 0.00 0.05 0.05 96 1015.4
20260901085907 18 125 3.2 3.2 0.00 0.05 0.05 96 1015.6
20260901085402 18 227 1.6 3.2 0.00 0.05 0.05 96 1015.7
20260901084859 18 147 0.0 3.2 0.00 0.05 0.05 96 1015.8
20260901084354 18 111 0.0 1.6 0.00 0.05 0.05 96 1016.0
20260901083850 18 240 0.0 3.2 0.00 0.05 0.05 96 1015.9
20260901083350 18 135 0.0 1.6 0.00 0.05 0.05 96 1015.9
20260901082848 18 124 0.0 0.0 0.00 0.05 0.05 96 1016.0
20260901082344 18 135 0.0 1.6 0.05 0.05 0.05 96 1016.1
20260901081838 18 217 0.0 3.2 0.13 0.05 0.05 96 1016.3
20260901081334 18 6 1.6 3.2 0.05 0.05 0.05 96 1016.1
20260901080834 18 193 0.0 3.2 0.00 0.03 0.03 96 1016.1
20260901080334 18 139 0.0 3.2 0.05 0.03 0.03 96 1016.2
20260901075828 18 98 0.0 1.6 0.05 0.03 0.03 96 1016.2
20260901075323 17 173 0.0 1.6 0.05 0.03 0.03 96 1016.3
20260901074819 17 175 0.0 0.0 0.05 0.00 0.00 96 1016.3
20260901074313 17 175 0.0 0.0 0.05 0.00 0.00 96 1016.4
20260901073808 18 175 0.0 0.0 0.00 0.00 0.00 96 1016.1
20260901073304 18 175 0.0 0.0 0.00 0.00 0.00 96 1016.1
20260901072800 18 175 0.0 3.2 0.00 0.00 0.00 96 1016.3
20260901072259 18 150 0.0 1.6 0.00 0.00 0.00 96 1016.1
20260901071754 17 157 0.0 1.6 0.00 0.00 0.00 96 1016.2
20260901071253 17 139 0.0 1.6 0.00 0.00 0.00 96 1016.3
20260901070752 17 217 0.0 0.0 0.00 0.00 0.00 96 1016.2
20260901070248 17 217 0.0 0.0 0.00 0.00 0.00 96 1016.3
20260901065747 17 217 0.0 1.6 0.00 0.00 0.00 96 1016.2
20260901065243 17 217 0.0 1.6 0.00 0.00 0.00 96 1016.3
20260901064739 17 230 0.0 0.0 0.00 0.00 0.00 96 1016.3
20260901064235 17 230 0.0 0.0 0.00 0.00 0.00 96 1016.4
20260901063732 17 230 0.0 0.0 0.00 0.00 0.00 96 1016.2
20260901063227 17 230 0.0 0.0 0.00 0.00 0.00 96 1016.4
20260901062723 17 230 0.0 0.0 0.00 0.00 0.00 96 1016.3
20260901062219 17 230 0.0 0.0 0.00 0.00 0.00 96 1016.3
20260901061715 17 230 0.0 0.0 0.00 0.00 0.00 96 1016.5
20260901061214 17 230 0.0 0.0 0.00 0.00 0.00 96 1016.5
20260901060709 17 230 0.0 0.0 0.00 0.00 0.00 96 1016.5
20260901060205 17 230 0.0 1.6 0.00 0.00 0.00 96 1016.6
20260901055700 17 89 0.0 0.0 0.00 0.00 0.00 96 1016.7
20260901055157 17 89 0.0 0.0 0.00 0.00 0.00 96 1016.8
20260901054654 17 89 0.0 0.0 0.00 0.00 0.00 96 1016.9
20260901054149 17 89 0.0 0.0 0.00 0.00 0.00 96 1016.7
20260901053645 17 142 0.0 1.6 0.00 0.00 0.00 96 1016.8
20260901053141 17 89 0.0 1.6 0.00 0.00 0.00 96 1017.2
20260901052636 17 66 0.0 0.0 0.00 0.00 0.00 96 1017.2
20260901052131 17 129 0.0 0.0 0.00 0.00 0.00 96 1017.3
20260901051631 17 129 0.0 0.0 0.00 0.00 0.00 96 1017.0
20260901051130 17 129 0.0 1.6 0.00 0.00 0.00 96 1016.9
20260901050625 17 135 0.0 1.6 0.00 0.00 0.00 96 1016.9
20260901050121 17 142 0.0 0.0 0.00 0.00 0.00 96 1017.0
20260901045615 17 142 0.0 0.0 0.00 0.00 0.00 96 1017.2
20260901045110 17 142 0.0 0.0 0.00 0.00 0.00 96 1017.2
20260901044606 17 142 0.0 0.0 0.00 0.00 0.00 96 1017.3
20260901044101 17 142 0.0 1.6 0.00 0.00 0.00 96 1017.0
20260901043557 17 142 0.0 0.0 0.00 0.00 0.00 96 1017.5
20260901043052 17 129 0.0 1.6 0.00 0.00 0.00 96 1017.2
20260901042551 17 135 0.0 1.6 0.00 0.00 0.00 96 1017.4
20260901042047 18 129 0.0 0.0 0.00 0.00 0.00 96 1017.2
20260901041542 18 142 0.0 1.6 0.00 0.00 0.00 96 1017.4
20260901041037 18 129 0.0 0.0 0.00 0.00 0.00 96 1017.2
20260901040536 18 129 0.0 1.6 0.00 0.00 0.00 96 1017.0
20260901040031 18 131 0.0 1.6 0.00 0.00 0.00 96 1017.2
20260901035528 18 124 0.0 1.6 0.00 1.04 1.04 96 1017.2
20260901035027 18 130 1.6 1.6 0.00 1.04 1.04 96 1017.2
20260901034522 18 130 0.0 1.6 0.00 1.04 1.04 96 1017.0
20260901034016 18 129 0.0 1.6 0.00 1.04 1.04 96 1017.2
20260901033515 18 129 0.0 0.0 0.00 1.04 1.04 96 1017.2
20260901033010 18 129 0.0 0.0 0.00 1.04 1.04 96 1017.3
20260901032504 18 129 0.0 0.0 0.00 1.04 1.04 96 1017.2
20260901032003 18 129 0.0 0.0 0.00 1.04 1.04 96 1017.0
20260901031459 18 129 0.0 1.6 0.00 1.04 1.04 96 1017.4
20260901030954 18 129 0.0 0.0 0.00 1.04 1.04 96 1017.3
20260901030449 18 129 0.0 1.6 0.00 1.04 1.04 96 1017.2
20260901025948 18 128 0.0 1.6 0.00 1.04 1.04 96 1017.2
20260901025444 18 129 0.0 1.6 0.00 1.04 1.04 96 1017.4
20260901024943 18 130 0.0 1.6 0.00 1.04 1.04 96 1017.3
20260901024438 18 124 0.0 1.6 0.00 1.04 1.04 96 1017.4
20260901023936 18 120 1.6 1.6 0.00 1.04 1.04 96 1017.4
20260901023431 18 75 0.0 1.6 0.00 1.04 1.04 96 1017.6
20260901022926 18 113 0.0 0.0 0.00 1.04 1.04 96 1017.5
20260901022422 18 113 0.0 1.6 0.00 1.04 1.04 96 1017.6
20260901021916 18 129 0.0 1.6 0.00 1.04 1.04 96 1017.6
20260901021412 18 126 0.0 3.2 0.00 1.04 1.04 96 1017.7
20260901020907 18 202 0.0 1.6 0.00 1.04 1.04 96 1017.7
20260901020403 18 315 0.0 0.0 0.00 1.04 1.04 96 1017.7
20260901015902 18 315 0.0 0.0 0.00 1.04 1.04 96 1017.6
20260901015358 18 315 0.0 1.6 0.00 1.04 1.04 96 1017.8
20260901014857 18 230 0.0 0.0 0.00 1.04 1.04 96 1017.9
20260901014354 18 269 0.0 1.6 0.00 1.04 1.04 96 1017.9
20260901013849 18 219 0.0 3.2 0.00 1.04 1.04 96 1017.6
20260901013345 18 144 0.0 3.2 0.00 1.04 1.04 96 1017.8
20260901012840 18 132 0.0 4.8 0.00 1.04 1.04 96 1017.9
20260901012335 18 217 0.0 3.2 0.00 1.04 1.04 96 1017.8
20260901011831 18 129 0.0 1.6 0.00 1.04 1.04 96 1017.7
20260901011326 18 147 1.6 3.2 0.05 1.04 1.04 96 1017.8
20260901010819 18 129 0.0 1.6 0.36 1.04 1.04 96 1017.5
20260901010314 18 105 0.0 3.2 0.30 1.04 1.04 96 1017.6
20260901005813 18 166 0.0 3.2 0.05 0.99 0.99 96 1017.6
20260901005308 18 89 0.0 1.6 0.05 0.99 0.99 96 1017.6
20260901004808 18 217 0.0 1.6 0.00 0.99 0.99 96 1017.6
20260901004303 18 223 0.0 1.6 0.05 0.99 0.99 96 1017.5
20260901003802 18 217 0.0 1.6 0.05 0.99 0.99 96 1017.6
20260901003257 18 144 3.2 4.8 0.00 0.97 0.97 96 1017.6
20260901002750 18 130 0.0 1.6 0.00 0.97 0.97 96 1017.4
20260901002246 18 115 0.0 3.2 0.00 0.97 0.97 96 1017.4
20260901001741 18 112 0.0 3.2 0.05 0.97 0.97 96 1017.5
20260901001236 18 269 0.0 0.0 0.05 0.97 0.97 96 1017.4
20260901000726 18 74 3.2 3.2 0.05 0.97 0.97 96 1017.3
20260901000221 18 142 0.0 1.6 0.05 0.94 0.94 96 1017.3
20260831235719 18 322 0.0 1.6 0.05 0.94 0.94 96 1017.3
20260831235216 18 173 0.0 1.6 0.05 0.94 0.94 96 1017.4
20260831234715 18 194 1.6 3.2 0.00 0.94 0.94 96 1017.3
20260831234210 18 147 0.0 3.2 0.00 0.94 0.94 96 1017.3
20260831233705 18 269 0.0 1.6 0.00 0.94 0.94 96 1017.6
20260831233201 18 202 0.0 3.2 0.00 0.94 0.94 96 1017.5
20260831232700 18 233 0.0 1.6 0.05 0.94 0.94 96 1017.6
20260831232157 18 184 0.0 3.2 0.05 0.94 0.94 96 1017.5
20260831231653 18 202 0.0 3.2 0.00 0.94 0.94 96 1017.5
20260831231149 18 118 0.0 3.2 0.00 0.94 0.94 96 1017.7
20260831230643 18 135 0.0 0.0 0.00 0.94 0.94 96 1017.9
20260831230139 18 206 1.6 3.2 0.00 0.94 0.94 96 1017.9
20260831225638 18 129 0.0 3.2 0.00 0.94 0.94 96 1017.8
20260831225133 18 230 0.0 3.2 0.00 0.94 0.94 96 1017.7
20260831224629 18 103 0.0 1.6 0.00 0.94 0.94 96 1018.0
20260831224124 18 89 0.0 1.6 0.00 0.94 0.94 96 1018.0
20260831223619 18 89 0.0 3.2 0.05 0.94 0.94 96 1018.2
20260831223115 18 117 0.0 3.2 0.05 0.94 0.94 96 1018.2
20260831222611 18 129 0.0 3.2 0.05 0.91 0.91 96 1018.1
20260831222112 18 116 0.0 3.2 0.05 0.91 0.91 96 1018.3
20260831221607 18 139 0.0 3.2 0.13 0.91 0.91 96 1018.4
20260831221102 18 150 1.6 3.2 0.05 0.89 0.89 96 1018.3
20260831220556 18 217 0.0 0.0 0.05 0.89 0.89 96 1018.3
20260831220052 18 230 0.0 1.6 0.13 0.89 0.89 96 1018.4
20260831215548 18 217 0.0 3.2 0.13 0.89 0.89 96 1018.5
20260831215043 18 269 0.0 1.6 0.00 0.86 0.86 96 1018.4
20260831214541 18 232 0.0 4.8 0.00 0.86 0.86 96 1018.4
20260831214036 18 108 0.0 3.2 0.00 0.86 0.86 96 1018.4
20260831213533 18 121 1.6 3.2 0.00 0.86 0.86 96 1018.3
20260831213028 18 135 1.6 3.2 0.00 0.86 0.86 96 1018.7
20260831212524 18 235 0.0 3.2 0.00 0.86 0.86 96 1018.5
20260831212019 18 260 0.0 6.4 0.00 0.86 0.86 96 1018.5
20260831211514 18 226 1.6 6.4 0.00 0.86 0.86 96 1018.5
20260831211013 18 190 0.0 3.2 0.00 0.86 0.86 96 1018.6
20260831210508 18 227 1.6 4.8 0.00 0.86 0.86 96 1018.4
20260831210004 18 142 0.0 3.2 0.30 0.86 0.86 96 1018.4
20260831205459 18 174 0.0 4.8 0.61 0.86 0.86 96 1018.5
20260831204955 18 144 3.2 3.2 0.36 0.81 0.81 96 1018.4
20260831204454 18 37 0.0 1.6 0.18 0.74 0.74 96 1018.5
20260831203953 18 169 1.6 4.8 0.18 0.74 0.74 96 1018.5
20260831203448 18 232 0.0 3.2 0.05 0.74 0.74 96 1018.5
20260831202946 18 234 0.0 3.2 0.00 0.71 0.71 96 1018.4
20260831202442 18 87 1.6 4.8 0.00 0.71 0.71 96 1018.4
20260831201941 18 211 1.6 4.8 0.00 0.71 0.71 96 1018.6
20260831201439 18 266 1.6 3.2 0.00 0.71 0.71 96 1018.4
20260831200935 18 130 0.0 3.2 0.00 0.71 0.71 96 1018.6
20260831200430 18 114 0.0 3.2 0.05 0.71 0.71 96 1018.8
20260831195930 18 127 0.0 3.2 0.13 0.71 0.71 96 1018.6
20260831195426 18 66 0.0 1.6 0.30 0.71 0.71 96 1018.8
20260831194921 18 217 0.0 0.0 0.48 0.69 0.69 96 1018.7
20260831194416 18 228 0.0 4.8 0.30 0.64 0.64 96 1018.6
20260831193916 18 135 0.0 3.2 0.23 0.61 0.61 96 1018.7
20260831193411 18 204 0.0 8.0 0.05 0.58 0.58 96 1018.7
20260831192906 18 241 1.6 4.8 0.00 0.56 0.56 96 1018.9
20260831192401 18 198 1.6 6.4 0.00 0.56 0.56 96 1018.8
20260831191856 18 144 3.2 6.4 0.00 0.56 0.56 96 1018.9
20260831191352 17 168 1.6 3.2 0.00 0.56 0.56 96 1018.8
20260831190848 17 157 1.6 4.8 0.00 0.56 0.56 96 1019.2
20260831190347 17 176 1.6 3.2 0.00 0.56 0.56 96 1019.2
20260831185842 17 247 6.4 8.0 0.00 0.56 0.56 96 1019.1
20260831185338 17 208 3.2 6.4 0.00 0.56 0.56 96 1019.2
20260831184837 17 217 0.0 8.0 0.00 0.56 0.56 96 1019.3
20260831184332 17 238 4.8 8.0 0.05 0.56 0.56 96 1019.4
20260831183827 17 149 0.0 4.8 0.00 0.56 0.56 96 1019.2
20260831183326 17 234 6.4 6.4 0.00 0.56 0.56 96 1019.5
20260831182826 17 191 1.6 4.8 0.00 0.56 0.56 96 1019.4
20260831182321 17 179 0.0 3.2 0.00 0.56 0.56 96 1019.4
20260831181816 17 132 0.0 9.7 0.00 0.56 0.56 96 1019.8
20260831181311 17 209 0.0 4.8 0.05 0.56 0.56 96 1019.6
20260831180807 17 215 1.6 6.4 0.05 0.56 0.56 96 1019.8
20260831180301 17 225 1.6 3.2 0.05 0.56 0.56 96 1019.8
20260831175800 17 218 0.0 6.4 0.13 0.56 0.56 96 1020.0
20260831175257 17 156 1.6 4.8 0.13 0.53 0.53 96 1020.0
20260831174752 17 137 3.2 4.8 0.13 0.53 0.53 96 1020.0
20260831174248 17 237 4.8 4.8 0.13 0.51 0.51 96 1020.2
20260831173747 17 180 3.2 4.8 0.23 0.51 0.51 96 1020.2
20260831173241 17 180 0.0 4.8 0.36 0.51 0.51 96 1020.2
20260831172736 17 192 3.2 4.8 0.23 0.46 0.46 96 1020.3
20260831172231 17 272 0.0 4.8 0.23 0.46 0.46 96 1020.4
20260831171726 17 116 0.0 4.8 0.23 0.43 0.43 96 1020.3
20260831171224 17 228 0.0 4.8 0.30 0.41 0.41 96 1020.3
20260831170720 17 163 3.2 4.8 0.18 0.38 0.38 96 1020.6
20260831170216 17 204 4.8 6.4 0.13 0.36 0.36 96 1020.5
20260831165712 17 143 1.6 6.4 0.13 0.36 0.36 96 1020.4
20260831165209 17 172 0.0 6.4 0.18 0.33 0.33 96 1020.5
20260831164704 17 185 1.6 6.4 0.13 0.33 0.33 96 1020.4
20260831164200 17 160 1.6 8.0 0.13 0.30 0.30 96 1020.6
20260831163655 18 230 1.6 4.8 0.13 0.30 0.30 96 1020.7
20260831163151 18 202 0.0 4.8 0.18 0.28 0.28 96 1020.5
20260831162649 18 119 0.0 4.8 0.43 0.28 0.28 95 1020.6
20260831162148 18 126 3.2 4.8 0.61 0.25 0.25 95 1020.6
20260831161643 18 128 0.0 3.2 0.89 0.18 0.18 94 1020.7